Terminal Aerodrome Forecast
Issued by NWS Wilmington, OH

Current Version | Previous Version | Graphics & Text | Print | Product List | Glossary On
Versions: 1 2 3 4 5 6 7 8 9 10 11 12 13 14 15 16 17 18 19 20
000
FTUS41 KILN 131100
TAFILN
TAF
KILN 131124Z 1312/1412 32008KT P6SM OVC015
      TEMPO 1312/1314 5SM BR BKN008 OVC025
     FM131500 31011KT P6SM FEW030
     FM132300 03004KT P6SM SKC=

USA.gov is the U.S. government's official web portal to all federal, state and local government web resources and services.